Location: Newark
(48.3831°N, 4.1956°E)
Time: 10:43:34
(UTC+00:00)

Envisat - Pass Details

Date: 13 November 2019
Orbit: 764 x 766 km, 98.1° (Epoch: 08 December)

Event Time Altitude Azimuth Distance (km) Brightness Sun altitude
Rises 19:20:09 0° 222° (SW) 3,224 6.6 -32.0°
Reaches altitude 10° 19:24:09 10° 254° (WSW) 2,305 6.2 -32.6°
Maximum altitude 19:25:57 12° 275° (W) 2,186 6.2 -32.9°
Drops below altitude 10° 19:27:45 10° 296° (WNW) 2,311 6.3 -33.2°
Sets 19:31:48 0° 328° (NNW) 3,244 6.8 -33.9°
